CAPE
0 0 0 0 0 0 0 0 0 0 0 0 0 0 0 0 0 0 0 0 0 0 0 0 0 0 0 2 19 98 62 43 33 13 20 30 137 152 120 28 23 31 4 27 84
0 0 1 1 0 0 0 0 0 0 0 0 0 0 0 0 0 0 0 0 0 0 0 0 0 0 0 0 52 124 26 49 59 44 27 56 5 55 1 56 6 26 47 54 88
1 1 1 1 1 0 0 0 0 0 0 0 0 0 0 0 0 0 0 0 0 0 0 0 0 0 0 0 30 113 51 78 116 76 132 49 1 0 28 63 19 0 0 57 82
0 1 3 1 1 0 0 0 0 0 0 0 0 0 0 0 0 0 0 0 0 0 0 0 0 0 0 0 0 39 14 22 66 204 113 110 58 1 27 53 102 1 1 59 80
1 1 1 0 0 0 0 0 0 0 0 0 0 0 0 0 0 0 0 0 0 0 0 0 0 0 0 0 0 1 4 1 0 0 245 50 14 28 61 145 0 33 14 21 26
0 0 0 0 0 0 0 0 0 0 0 0 1 0 0 0 0 0 0 0 0 0 0 0 0 0 0 0 0 0 0 0 0 0 105 75 4 5 4 151 0 8 1 6 11
1 1 0 0 0 0 0 0 0 0 0 0 2 0 0 0 0 0 0 0 0 0 0 0 0 0 0 0 0 0 0 0 100 199 203 74 5 22 55 277 1 3 0 2 15
2 1 1 0 0 0 0 0 0 0 0 0 1 0 0 0 0 0 0 0 0 0 0 0 0 0 0 0 0 0 0 0 305 301 230 111 60 239 257 358 99 40 15 0 19
0 0 0 0 1 0 0 0 0 0 0 0 0 0 0 0 0 0 0 0 0 0 0 0 0 0 0 0 0 0 0 0 0 302 186 147 84 37 212 309 168 43 39 22 0
0 0 0 1 2 0 0 0 0 0 0 0 0 0 0 0 0 0 0 0 0 0 0 0 0 0 0 0 0 0 0 0 0 95 218 15 105 65 201 33 88 122 46 41 38
0 0 0 0 0 0 0 0 0 0 0 0 0 0 0 0 0 0 0 0 0 0 0 0 0 0 0 0 0 0 0 0 0 0 0 0 0 96 213 105 156 202 57 17 37
0 1 0 0 0 0 0 0 0 0 0 0 0 0 0 0 0 0 0 0 0 0 0 0 0 0 0 0 0 0 0 0 0 0 0 0 0 80 193 76 345 252 96 25 20
1 0 0 0 0 0 0 0 0 0 0 0 0 0 0 0 0 0 0 0 0 0 0 0 0 0 0 0 0 0 0 0 0 0 16 18 19 123 327 170 287 313 184 43 24
2 0 0 0 0 0 0 0 0 0 0 0 0 0 0 0 0 0 0 0 0 0 0 0 0 0 0 0 0 0 0 0 0 0 0 5 0 47 236 177 129 258 355 154 31
0 0 0 0 0 0 0 0 0 0 0 0 0 0 0 0 0 0 0 0 0 0 0 0 0 0 0 0 0 0 0 0 0 0 0 0 0 0 120 190 168 162 253 349 136
0 0 0 0 0 0 0 0 0 0 0 0 0 0 0 0 0 0 0 0 0 0 0 0 0 0 0 0 0 0 0 0 0 0 0 0 0 0 0 59 78 74 96 224 321
0 0 0 0 0 0 0 0 0 0 0 0 0 0 0 0 0 0 0 0 0 0 0 0 0 0 0 0 0 0 0 0 0 0 0 0 0 0 0 0 0 0 15 152 358
0 0 0 0 0 0 0 0 0 0 0 0 0 0 0 0 0 0 0 0 0 0 0 0 0 0 0 0 0 0 0 0 0 0 0 0 0 0 0 0 0 0 0 121 481
0 0 0 0 0 0 0 0 0 0 0 0 0 0 0 0 0 0 0 0 0 0 0 0 0 0 0 0 0 0 0 0 0 0 0 0 0 0 0 0 0 0 0 43 265
0 0 0 0 0 0 0 0 0 0 0 0 0 0 0 0 0 0 0 0 0 0 0 0 0 0 0 0 0 0 0 0 0 0 0 0 0 0 0 0 0 0 0 0 8
0 0 0 0 0 0 0 0 0 0 0 0 0 0 0 0 0 0 0 0 0 0 0 0 0 0 0 0 0 0 0 0 0 0 0 0 0 0 0 0 0 0 0 8 17
0 0 0 0 0 0 0 0 0 0 0 0 0 0 0 0 0 0 0 0 0 0 0 0 0 0 0 0 0 0 0 0 0 0 0 0 0 0 0 0 0 1 1 24 56
0 0 0 0 0 0 0 0 0 0 0 0 0 0 0 0 0 0 0 0 0 0 0 0 0 0 0 0 0 0 0 0 0 0 0 0 0 0 0 0 0 0 2 1 76
0 0 0 0 0 0 0 0 0 0 0 0 0 0 0 0 0 0 0 0 0 0 0 0 0 0 0 0 0 0 0 0 0 0 0 0 0 0 0 0 0 0 0 3 3
0 0 0 0 0 0 0 0 0 0 0 0 0 0 0 0 0 0 0 0 0 0 0 0 0 0 0 0 0 0 0 0 0 0 0 0 0 0 0 0 0 0 0 0 1
0 0 0 0 0 0 0 0 0 0 0 0 0 0 0 0 0 0 0 0 0 0 0 0 0 0 0 0 0 0 0 0 0 0 0 0 0 0 0 0 0 0 0 0 1
0 0 0 0 0 0 0 0 0 0 0 0 0 0 0 0 0 0 0 0 0 0 0 0 0 0 0 0 0 0 0 0 0 0 0 0 0 0 0 0 0 0 0 0 0
CIN
0 0 0 0 0 0 0 0 0 0 0 0 0 0 0 0 0 0 0 0 0 0 0 0 0 0 0 -36 -97 -40 -34 -9 -22 -50 -40 -50 -24 -3 -7 -43 -61 -91 -273 -228 -162
0 0 0 0 0 0 0 0 0 0 0 0 0 0 0 0 0 0 0 0 0 0 0 0 0 0 0 0 -81 -43 -55 -19 -19 -27 -44 -28 -53 -19 -15 -27 -53 -164 -203 -151 -143
0 0 0 0 0 0 0 0 0 0 0 0 0 0 0 0 0 0 0 0 0 0 0 0 0 0 0 0 -114 -49 -49 -39 -18 -36 -40 -70 -53 0 -37 -11 -59 -20 0 -144 -119
0 0 0 0 0 0 0 0 0 0 0 0 0 0 0 0 0 0 0 0 0 0 0 0 0 0 0 0 0 -109 -137 -74 -67 -37 -38 -32 -74 -5 -83 -49 -58 -14 -73 -118 -121
0 0 0 0 0 0 0 0 0 0 0 0 0 0 0 0 0 0 0 0 0 0 0 0 0 0 0 0 0 -89 -89 -84 -34 0 -29 -100 -108 -105 -12 -7 -16 -85 -127 -97 -96
0 -1 0 0 0 0 0 0 0 0 0 0 0 0 0 0 0 0 0 0 0 0 0 0 0 0 0 0 0 0 0 0 0 0 -123 -70 -148 -90 -92 -12 0 -108 -16 -90 -120
0 0 0 0 0 0 0 0 0 0 0 0 0 0 0 0 0 0 0 0 0 0 0 0 0 0 0 0 0 0 0 0 -144 -121 -99 -106 -115 -72 -72 -8 -17 -97 0 -48 -104
0 0 0 0 0 0 0 0 0 0 0 0 0 0 0 0 0 0 0 0 0 0 0 0 0 0 0 0 0 0 0 0 -66 -54 -78 -84 -28 -61 -33 -11 -58 -130 -143 -13 -102
0 0 0 0 0 0 0 0 0 0 0 0 0 0 0 0 0 0 0 0 0 0 0 0 0 0 0 0 0 0 0 0 0 -55 -47 -83 -34 -83 -82 -44 -75 -125 -130 -136 0
0 0 0 0 0 0 0 0 0 0 0 0 0 0 0 0 0 0 0 0 0 0 0 0 0 0 0 0 0 0 0 0 0 -59 -42 -25 -45 -103 -121 -216 -152 -86 -127 -102 -113
0 0 0 0 0 0 0 0 0 0 0 0 0 0 0 0 0 0 0 0 0 0 0 0 0 0 0 0 0 0 0 0 0 0 0 0 0 -49 -103 -154 -127 -90 -125 -122 -97
0 0 0 0 0 0 0 0 0 0 0 0 0 0 0 0 0 0 0 0 0 0 0 0 0 0 0 0 0 0 0 0 0 0 0 0 0 -157 -128 -154 -80 -86 -90 -93 -83
0 -1 0 0 0 0 0 0 0 0 0 0 0 0 0 0 0 0 0 0 0 0 0 0 0 0 0 0 0 0 0 0 0 0 -76 -82 -75 -188 -112 -120 -56 -72 -72 -91 -96
0 0 0 0 0 0 0 0 0 0 0 0 0 0 0 0 0 0 0 0 0 0 0 0 0 0 0 0 0 0 0 0 0 0 0 -11 0 -189 -155 -165 -142 -100 -83 -92 -109
0 0 0 0 0 0 0 0 0 0 0 0 0 0 0 0 0 0 0 0 0 0 0 0 0 0 0 0 0 0 0 0 0 0 0 0 0 0 -234 -202 -210 -195 -145 -111 -144
0 0 0 0 0 0 0 0 0 0 0 0 0 0 0 0 0 0 0 0 0 0 0 0 0 0 0 0 0 0 0 0 0 0 0 0 0 0 -23 -52 -127 -175 -178 -155 -150
0 0 0 0 0 0 0 0 0 0 0 0 0 0 0 0 0 0 0 0 0 0 0 0 0 0 0 0 0 0 0 0 0 0 0 0 0 0 0 0 0 0 -271 -172 -117
0 0 0 0 0 0 0 0 0 0 0 0 0 0 0 0 0 0 0 0 0 0 0 0 0 0 0 0 0 0 0 0 0 0 0 0 0 0 0 0 0 0 0 -287 -135
0 0 0 0 0 0 0 0 0 0 0 0 0 0 0 0 0 0 0 0 0 0 0 0 0 0 0 0 0 0 0 0 0 0 0 0 0 0 0 0 0 0 0 -318 -219
0 0 0 0 0 0 0 0 0 0 0 0 0 0 0 0 0 0 0 0 0 0 0 0 0 0 0 0 0 0 0 0 0 0 0 0 0 0 0 0 0 0 0 0 -447
0 0 0 0 0 0 0 0 0 0 0 0 0 0 0 0 0 0 0 0 0 0 0 0 0 0 0 0 0 0 0 0 0 0 0 0 0 0 0 0 0 0 0 -309 -519
0 0 0 0 0 0 0 0 0 0 0 0 0 0 0 0 0 0 0 0 0 0 0 0 0 0 0 0 0 0 0 0 0 0 0 0 0 0 0 0 0 0 0 -226 -431
0 0 0 0 0 0 0 0 0 0 0 0 0 0 0 0 0 0 0 0 0 0 0 0 0 0 0 0 0 0 0 0 0 0 0 0 0 0 0 0 0 0 0 0 -315
0 0 0 0 0 0 0 0 0 0 0 0 0 0 0 0 0 0 0 0 0 0 0 0 0 0 0 0 0 0 0 0 0 0 0 0 0 0 0 0 0 0 0 0 0
0 0 0 0 0 0 0 0 0 0 0 0 0 0 0 0 0 0 0 0 0 0 0 0 0 0 0 0 0 0 0 0 0 0 0 0 0 0 0 0 0 0 0 0 0
0 0 0 0 0 0 0 0 0 0 0 0 0 0 0 0 0 0 0 0 0 0 0 0 0 0 0 0 0 0 0 0 0 0 0 0 0 0 0 0 0 0 0 0 0
0 0 0 0 0 0 0 0 0 0 0 0 0 0 0 0 0 0 0 0 0 0 0 0 0 0 0 0 0 0 0 0 0 0 0 0 0 0 0 0 0 0 0 0 0
Wind_Speed
33 32 32 32 32 31 30 30 29 28 27 26 25 24 24 23 23 20 24 19 12 6 6 1 6 7 10 9 12 13 13 13 15 18 13 9 17 13 12 11 12 18 20 23 30
32 33 32 32 32 32 31 30 29 28 27 27 25 24 23 22 22 27 24 16 14 4 4 4 2 2 8 10 12 13 11 14 16 20 20 13 15 12 14 18 10 7 17 25 27
31 33 34 34 33 32 32 30 30 29 27 26 24 22 20 19 21 19 15 8 7 4 6 5 2 6 9 11 12 12 13 14 15 17 20 20 17 12 16 22 20 17 25 26 28
33 34 35 35 34 33 32 31 30 29 27 25 23 20 18 18 17 18 9 4 4 6 5 7 7 8 11 12 14 14 17 18 12 14 17 17 18 17 4 24 21 19 23 25 29
34 35 35 35 34 33 33 32 31 29 27 24 22 19 18 19 19 14 2 3 6 6 6 10 7 12 12 14 14 16 21 21 21 16 14 14 17 15 20 11 8 17 19 26 27
35 36 36 35 34 33 33 33 32 29 26 23 21 16 17 18 16 6 2 3 8 9 9 10 11 11 11 13 12 13 19 24 23 17 10 12 15 17 13 3 14 20 19 27 29
37 36 36 36 35 34 33 33 32 29 26 21 18 15 17 15 13 4 4 8 8 12 10 14 13 14 13 15 16 19 20 18 14 9 10 11 12 15 16 16 21 21 18 28 27
37 37 36 36 35 34 33 33 32 28 22 18 14 15 17 14 8 5 9 11 12 13 14 14 13 14 15 18 18 17 16 16 13 10 8 13 13 12 14 17 20 22 20 26 28
38 37 36 36 35 34 32 31 28 20 13 12 14 16 16 12 13 9 10 9 7 14 17 15 14 17 16 16 16 15 15 15 14 13 12 13 11 9 12 13 11 17 22 25 27
36 37 36 36 34 32 29 21 13 11 12 13 18 17 16 13 13 7 9 2 11 9 11 13 15 17 17 17 19 16 15 14 13 14 16 14 18 7 9 19 10 10 15 25 27
13 28 35 35 32 28 21 13 17 16 18 19 18 19 16 17 11 10 6 10 9 12 16 16 17 19 18 17 18 15 13 15 16 17 21 22 23 12 2 4 4 23 28 22 26
13 11 30 31 28 23 12 15 17 19 23 22 22 22 21 16 14 10 2 12 14 17 15 17 23 18 17 18 18 18 16 18 19 15 17 17 19 16 4 7 6 8 20 22 20
8 17 27 21 15 15 15 16 21 15 19 20 17 18 16 11 13 11 8 13 15 17 19 20 21 18 19 18 18 19 19 18 19 19 15 13 18 16 9 11 12 10 7 4 17
12 25 24 22 17 16 16 21 21 13 17 18 17 16 14 14 14 13 12 12 15 18 17 19 17 18 20 22 18 21 17 18 19 19 19 16 17 19 9 5 11 29 24 16 33
14 18 23 20 17 17 20 24 17 14 16 13 14 12 13 16 12 14 13 13 15 17 17 19 19 20 23 22 18 18 14 16 18 19 19 19 16 16 16 26 32 29 31 35 32
12 8 12 17 15 14 22 20 13 15 16 14 13 14 13 14 14 12 13 12 12 13 16 17 16 18 21 22 20 13 14 14 15 17 21 18 16 15 16 21 25 32 34 37 21
12 3 17 17 17 12 16 11 12 14 16 15 13 14 13 14 13 13 12 14 18 20 18 18 18 17 16 18 16 18 16 20 23 23 23 17 15 14 18 19 22 28 29 25 37
17 18 17 15 9 9 15 9 10 13 13 14 14 12 13 13 13 14 13 13 14 17 19 20 23 19 17 19 19 18 19 21 25 25 21 18 18 16 17 18 19 19 24 15 27
2 20 25 7 14 18 15 9 11 14 15 15 12 9 13 12 12 11 10 14 14 15 18 18 19 18 17 14 19 19 21 19 14 17 19 21 20 19 22 20 20 20 18 22 20
20 21 21 13 18 14 15 10 11 13 16 14 12 12 13 15 13 13 15 15 16 15 14 15 17 16 17 16 15 17 17 21 20 24 24 21 21 24 24 24 24 24 23 23 27
18 19 16 10 9 17 15 11 12 13 13 13 13 13 13 15 14 14 17 14 16 15 11 14 16 18 15 14 17 19 21 18 18 21 27 26 25 20 23 23 24 25 26 27 27
18 17 20 17 19 16 15 16 16 17 15 14 12 11 13 14 15 17 16 17 19 16 15 15 14 17 14 16 15 11 17 20 26 26 24 24 25 19 21 22 23 24 25 24 20
17 20 23 17 16 16 15 16 17 16 15 16 15 14 14 15 16 15 16 17 16 14 15 15 16 19 21 22 18 17 18 16 17 21 27 28 26 19 21 21 22 22 22 21 19
19 19 23 20 16 15 16 16 15 17 16 14 16 15 17 17 15 15 15 16 16 14 13 14 16 21 25 21 18 20 20 19 20 26 25 28 26 24 22 22 22 22 21 20 19
22 21 19 20 20 17 16 16 16 16 16 17 14 15 16 18 18 18 18 17 16 18 16 16 19 17 16 17 19 20 21 22 24 24 27 25 28 25 24 23 22 22 21 20 20
22 20 22 23 20 18 17 16 16 16 17 17 15 16 15 15 16 17 19 19 19 19 17 17 15 14 17 18 20 23 25 24 25 27 29 28 30 25 23 23 23 22 22 22 21
22 21 20 20 20 21 21 18 17 17 17 16 17 16 16 16 15 17 18 18 18 19 17 18 16 18 20 19 19 22 19 21 23 24 27 33 29 28 28 27 26 25 23 23 23
Wind_Direction
333 333 332 330 326 322 320 318 314 308 304 301 295 285 283 281 281 284 266 270 267 250 255 200 278 287 269 305 300 311 330 333 340 48 109 311 270 257 255 245 259 218 119 118 121
340 335 334 328 327 325 320 316 313 310 305 302 299 292 288 288 285 261 263 266 259 171 210 197 233 278 284 293 300 302 328 338 7 35 41 40 332 301 278 221 261 2 93 115 120
345 333 326 321 316 316 316 315 312 308 306 304 301 301 295 298 288 280 287 262 247 230 233 245 226 268 273 284 287 301 300 320 6 37 50 47 61 15 273 220 222 101 120 124 127
341 333 325 319 314 309 306 306 308 307 303 304 303 304 301 297 284 290 298 209 200 251 223 245 239 254 264 273 275 286 275 272 360 38 24 46 48 73 348 219 218 120 124 129 133
341 330 324 322 321 317 310 300 299 302 302 302 301 303 302 287 277 299 17 188 228 245 232 247 225 252 255 268 284 276 271 269 244 302 354 31 25 54 134 237 86 115 124 133 134
337 329 320 319 319 315 307 306 298 293 296 300 300 306 294 280 289 302 4 217 241 244 246 247 249 258 258 277 281 294 284 266 277 315 25 16 28 46 74 296 102 121 126 137 139
331 323 318 314 316 314 308 299 298 293 288 295 300 300 289 282 295 296 296 271 249 251 246 251 267 257 270 270 279 277 277 294 321 332 336 34 10 31 85 111 126 127 126 143 143
326 320 315 312 313 310 306 294 290 289 292 293 302 296 282 291 306 283 277 274 262 255 260 252 265 260 268 267 271 272 276 280 297 303 323 310 353 37 81 109 126 131 132 144 152
325 322 317 313 311 309 304 296 291 296 298 303 295 289 279 295 278 272 271 274 265 254 255 258 260 259 268 266 267 275 267 276 286 282 302 298 329 291 43 95 122 131 139 146 151
342 316 314 312 311 309 305 311 336 323 304 295 284 280 276 275 283 291 259 284 268 250 254 252 257 256 260 258 254 262 268 278 285 274 277 290 277 296 69 98 191 229 133 150 155
8 294 308 316 314 308 312 324 308 303 284 273 273 275 272 278 282 271 263 259 267 251 250 247 251 246 251 258 261 267 272 269 279 277 264 264 259 275 321 355 71 145 156 150 160
7 5 302 311 320 318 346 309 311 296 279 271 268 263 264 273 268 264 203 259 252 247 251 250 248 250 258 262 262 263 266 269 275 285 288 283 279 284 260 280 302 119 153 156 156
348 286 302 289 278 28 327 315 306 302 284 272 265 260 264 267 270 255 246 265 251 252 248 247 257 250 257 260 261 263 262 266 267 278 295 298 283 283 283 277 282 288 260 188 161
284 297 299 294 32 25 339 304 295 299 280 268 254 260 264 267 267 268 260 268 261 253 247 257 259 248 256 256 262 261 265 265 269 271 270 285 282 276 285 285 180 216 254 160 210
282 281 295 14 22 26 325 294 296 293 264 278 251 271 268 260 257 264 263 272 258 254 256 256 248 255 253 256 259 264 270 262 270 272 272 273 278 287 277 251 216 197 199 216 191
281 256 60 38 38 41 292 290 285 266 259 274 267 257 253 265 263 260 262 282 272 265 260 258 267 265 259 257 253 271 270 271 273 271 264 269 270 283 282 273 269 252 216 207 181
287 206 67 56 40 75 267 313 273 265 274 269 270 262 252 254 258 263 263 264 260 250 251 260 265 269 270 256 258 258 258 256 256 256 259 264 266 285 289 290 282 256 214 189 200
294 60 69 77 105 131 12 316 281 272 274 279 276 270 252 260 267 263 260 262 280 263 252 251 253 264 277 259 256 255 252 257 256 251 250 262 259 272 297 296 308 314 253 249 182
119 57 37 257 92 74 22 327 279 268 277 273 280 270 255 265 264 266 273 265 281 277 258 252 257 274 278 287 259 255 253 260 270 265 249 256 266 268 293 299 308 314 308 269 268
51 38 332 288 93 80 11 336 296 284 276 293 277 277 258 261 264 265 269 282 276 293 274 269 252 279 278 277 284 260 262 251 257 249 250 255 260 267 283 287 292 298 300 286 261
56 46 302 254 266 357 7 314 265 280 295 289 281 276 275 266 265 269 270 282 287 283 306 275 268 269 275 280 272 261 257 262 256 259 251 252 258 286 287 289 292 295 297 292 271
57 47 301 321 340 339 332 298 281 274 293 288 298 303 282 279 269 264 267 277 291 285 277 288 277 265 261 275 288 295 271 261 250 252 258 260 260 295 297 298 298 299 307 311 302
57 44 345 3 347 353 329 329 336 311 287 275 282 290 292 282 275 272 275 294 306 293 284 282 275 262 262 268 280 276 281 275 265 259 256 255 259 292 301 304 307 306 312 322 321
56 52 34 10 354 349 336 322 321 333 337 311 287 290 278 281 283 277 276 288 294 305 314 295 283 273 263 266 270 269 275 276 268 258 257 260 263 276 292 301 305 311 318 324 327
58 59 65 51 354 350 340 329 326 316 325 328 320 315 293 272 271 270 272 277 290 292 295 297 283 283 280 278 276 273 272 273 268 268 262 263 266 275 284 293 302 306 312 316 320
69 77 74 61 71 5 343 339 339 327 322 317 317 315 318 297 290 273 272 278 280 286 292 296 286 288 282 282 280 275 273 271 270 270 269 272 270 282 287 291 296 303 305 306 310
79 85 83 92 92 75 49 358 344 340 336 338 326 313 310 310 308 299 295 293 288 286 290 289 285 285 280 287 286 275 278 273 273 275 275 271 277 282 282 287 289 291 299 299 300